Powrót do katalogu

DELTA 1 DEB

AktywnySSO
NORAD 3051·DEBRIS·🇺🇸 United States

Wystrzelony Nov 10, 1967 z Vandenberg Space Force Base

Loading…

Następne Przeloty (najbliższe 24 godziny)

TLE

ŚwieżeSource: Space-Track

Epoka: Sep 14, 2026, 08:53 UTC

1 03051U 67114C   26257.37034112 -.00000034  00000-0  48436-4 0  9998
2 03051 101.1748 226.5761 0089251 299.6843 218.5281 12.62295914710510

Śledź DELTA 1 DEB w czasie rzeczywistym z AllMySat

Download on the App Store